FW2272 Weather Reports


Display with metric or nautical units.
time (UTC)temp
F
wind
direction
speed
MPH
gust
MPH
rain 1hr
in
rain 24hr
in
rain mn
in
humidity
%
barometer
mb
20260510094739 65 185 0.0 0.0 0.00 0.00 0.00 90 1014.2
20260510094238 66 161 0.0 0.0 0.00 0.00 0.00 89 1014.2
20260510093738 66 188 0.0 0.0 0.00 0.00 0.00 89 1014.2
20260510093238 66 190 0.0 0.0 0.00 0.00 0.00 89 1014.2
20260510092740 66 159 0.0 0.0 0.00 0.00 0.00 89 1014.2
20260510092236 66 177 0.0 0.0 0.00 0.00 0.00 88 1014.2
20260510091739 67 151 0.0 0.0 0.00 0.00 0.00 88 1013.9
20260510091237 67 190 0.0 0.0 0.00 0.00 0.00 88 1013.9
20260510090753 67 168 0.0 0.0 0.00 0.00 0.00 88 1013.9
20260510090538 67 177 0.0 0.0 0.00 0.00 0.00 87 1013.9
20260510085738 67 165 0.0 0.0 0.00 0.00 0.00 87 1013.9
20260510085236 68 182 0.0 0.0 0.00 0.00 0.00 87 1013.9
20260510084736 68 169 0.0 0.0 0.00 0.00 0.00 87 1013.9
20260510084236 68 167 0.0 0.0 0.00 0.00 0.00 87 1013.5
20260510083736 68 165 0.0 0.0 0.00 0.00 0.00 87 1013.5
20260510083238 68 181 0.0 0.0 0.00 0.00 0.00 86 1013.9
20260510082736 68 176 0.0 0.0 0.00 0.00 0.00 86 1013.9
20260510082238 68 169 0.0 0.0 0.00 0.00 0.00 85 1013.9
20260510081735 69 173 0.0 0.0 0.00 0.00 0.00 85 1013.9
20260510081237 70 189 0.0 0.0 0.00 0.00 0.00 84 1013.9
20260510080735 70 189 0.0 0.0 0.00 0.00 0.00 84 1013.9
20260510080235 70 208 0.0 0.0 0.00 0.00 0.00 83 1013.9
20260510075733 70 195 0.0 0.0 0.00 0.00 0.00 83 1013.9
20260510075233 71 190 0.0 0.0 0.00 0.00 0.00 83 1013.9
20260510074735 71 180 0.0 0.0 0.00 0.00 0.00 83 1013.9
20260510074237 71 171 0.0 0.0 0.00 0.00 0.00 82 1013.9
20260510073736 72 184 0.0 0.0 0.00 0.00 0.00 82 1013.9
20260510073233 72 199 0.0 0.0 0.00 0.00 0.00 82 1013.9
20260510072734 72 183 0.0 0.0 0.00 0.00 0.00 82 1013.9
20260510072234 72 198 0.0 0.0 0.00 0.00 0.00 82 1013.9
20260510071734 72 212 0.0 0.0 0.00 0.00 0.00 82 1013.9
20260510071235 73 200 0.0 0.0 0.00 0.00 0.00 81 1013.9
20260510070733 73 177 2.0 0.0 0.00 0.00 0.00 81 1013.9
20260510070234 73 196 0.0 0.0 0.00 0.00 0.00 81 1013.9
20260510065737 73 183 1.0 0.0 0.00 0.00 0.00 81 1013.9
20260510065235 73 194 1.0 0.0 0.00 0.00 0.00 81 1013.9
20260510064732 73 212 2.0 0.0 0.00 0.00 0.00 81 1013.9
20260510064233 73 215 1.0 0.0 0.00 0.00 0.00 81 1013.9
20260510063732 73 208 0.0 0.0 0.00 0.00 0.00 81 1013.9
20260510063230 73 199 2.0 0.0 0.00 0.00 0.00 81 1013.9
20260510062731 73 143 3.0 0.0 0.00 0.00 0.00 81 1013.9
20260510062233 73 204 0.0 0.0 0.00 0.00 0.00 80 1013.9
20260510061732 74 211 0.0 0.0 0.00 0.00 0.00 80 1013.9
20260510061233 74 200 0.0 0.0 0.00 0.00 0.00 80 1014.2
20260510060732 74 216 0.0 0.0 0.00 0.00 0.00 80 1013.9
20260510060230 74 189 2.0 0.0 0.00 0.00 0.00 80 1013.9
20260510055729 74 198 2.0 0.0 0.00 0.00 0.00 79 1013.9
20260510055231 74 192 2.0 0.0 0.00 0.00 0.00 79 1013.9
20260510054729 74 210 2.0 0.0 0.00 0.00 0.00 79 1013.9
20260510054232 74 189 2.0 0.0 0.00 0.00 0.00 79 1013.9
20260510053737 75 202 2.0 0.0 0.00 0.00 0.00 79 1013.9
20260510053232 75 199 3.0 0.0 0.00 0.00 0.00 79 1013.5
20260510052729 74 143 4.0 0.0 0.00 0.00 0.00 79 1013.5
20260510052231 74 148 2.0 0.0 0.00 0.00 0.00 79 1013.5
20260510051730 74 211 2.0 0.0 0.00 0.00 0.00 79 1013.5
20260510051230 74 196 2.0 0.0 0.00 0.00 0.00 79 1013.5
20260510050729 74 171 3.0 0.0 0.00 0.00 0.00 80 1013.5
20260510050231 74 180 3.0 0.0 0.00 0.00 0.00 80 1013.5
20260510045729 74 171 2.0 0.0 0.00 0.00 0.00 80 1013.5
20260510045230 74 180 1.0 0.0 0.00 0.00 0.00 80 1013.5
20260510044728 74 164 2.0 0.0 0.00 0.00 0.00 80 1013.5
20260510044226 74 210 2.0 0.0 0.00 0.00 0.00 80 1013.5
20260510043728 73 202 2.0 0.0 0.00 0.00 0.00 81 1013.2
20260510043227 73 181 2.0 0.0 0.00 0.00 0.00 81 1013.2
20260510042727 73 180 2.0 0.0 0.00 0.00 0.00 81 1013.2
20260510042226 73 169 2.0 0.0 0.00 0.00 0.00 81 1013.2
20260510041728 73 186 2.0 0.0 0.00 0.00 0.00 81 1013.2
20260510041227 73 168 2.0 0.0 0.00 0.00 0.00 81 1013.2
20260510040730 73 159 3.0 0.0 0.00 0.00 0.00 81 1013.2
20260510040226 73 165 2.0 0.0 0.00 0.00 0.00 80 1013.2
20260510035729 73 153 2.0 0.0 0.00 0.00 0.00 80 1013.2
20260510035228 73 167 2.0 0.0 0.00 0.00 0.00 79 1013.2
20260510034727 73 176 2.0 0.0 0.00 0.00 0.00 79 1013.2
20260510034227 73 175 2.0 0.0 0.00 0.00 0.00 78 1013.2
20260510033726 74 180 2.0 0.0 0.00 0.00 0.00 78 1013.2
20260510033228 74 179 2.0 0.0 0.00 0.00 0.00 77 1012.9
20260510032728 74 181 2.0 0.0 0.00 0.00 0.00 77 1012.9
20260510032225 75 168 2.0 0.0 0.00 0.00 0.00 76 1012.9
20260510031728 75 157 2.0 0.0 0.00 0.00 0.00 75 1012.9
20260510031227 76 163 2.0 0.0 0.00 0.00 0.00 74 1012.9
20260510030726 76 168 2.0 0.0 0.00 0.00 0.00 73 1012.9
20260510030225 77 185 2.0 0.0 0.00 0.00 0.00 72 1012.9
20260510025725 77 181 2.0 0.0 0.00 0.00 0.00 71 1012.9
20260510025224 78 207 2.0 0.0 0.00 0.00 0.00 71 1012.5
20260510024726 78 189 2.0 0.0 0.00 0.00 0.00 70 1012.5
20260510024225 79 188 2.0 0.0 0.00 0.00 0.00 69 1012.5
20260510023726 79 188 2.0 0.0 0.00 0.00 0.00 68 1012.5
20260510023225 79 187 2.0 0.0 0.00 0.00 0.00 68 1012.5
20260510022724 80 171 2.0 0.0 0.00 0.00 0.00 67 1012.5
20260510022225 80 180 2.0 0.0 0.00 0.00 0.00 67 1012.2
20260510021725 80 168 3.0 0.0 0.00 0.00 0.00 66 1012.2
20260510021224 80 169 4.0 0.0 0.00 0.00 0.00 67 1012.2
20260510020724 80 188 3.0 0.0 0.00 0.00 0.00 67 1012.2
20260510020224 80 149 2.0 0.0 0.00 0.00 0.00 67 1011.9
20260510015725 80 202 2.0 0.0 0.00 0.00 0.00 67 1011.9
20260510015224 80 205 3.0 0.0 0.00 0.00 0.00 71 1011.9
20260510014726 80 197 2.0 0.0 0.00 0.00 0.00 71 1011.9
20260510014222 80 138 3.0 0.0 0.00 0.00 0.00 72 1011.5
20260510013722 81 168 2.0 0.0 0.00 0.00 0.00 71 1011.5
20260510013222 81 190 0.0 0.0 0.00 0.00 0.00 70 1011.5
20260510012725 81 189 0.0 0.0 0.00 0.00 0.00 71 1011.5
20260510012224 82 190 2.0 0.0 0.00 0.00 0.00 69 1011.5
20260510011726 82 175 2.0 0.0 0.00 0.00 0.00 69 1011.2
20260510011221 82 173 2.0 0.0 0.00 0.00 0.00 67 1011.2
20260510010722 83 169 2.0 0.0 0.00 0.00 0.00 65 1011.2
20260510010224 83 183 2.0 0.0 0.00 0.00 0.00 64 1011.2
20260510005722 84 166 3.0 0.0 0.00 0.00 0.00 63 1011.2
20260510005222 84 177 2.0 0.0 0.00 0.00 0.00 62 1011.2
20260510004722 85 183 2.0 0.0 0.00 0.00 0.00 61 1010.8
20260510004222 85 171 3.0 0.0 0.00 0.00 0.00 61 1010.8
20260510003720 85 167 2.0 0.0 0.00 0.00 0.00 60 1010.8
20260510003221 86 188 2.0 0.0 0.00 0.00 0.00 59 1010.8
20260510002721 86 160 5.0 0.0 0.00 0.00 0.00 57 1010.8
20260510002220 87 126 4.0 0.0 0.00 0.00 0.00 57 1010.5
20260510001722 87 171 4.0 0.0 0.00 0.00 0.00 57 1010.5
20260510001219 87 145 4.0 0.0 0.00 0.00 0.00 56 1010.5
20260510000720 87 162 3.0 0.0 0.00 0.00 0.00 58 1010.5
20260510000220 87 208 3.0 0.0 0.00 0.00 0.00 56 1010.5
20260509235719 87 229 3.0 0.0 0.00 0.00 0.00 56 1010.5
20260509235219 88 152 3.0 0.0 0.00 0.00 0.00 54 1010.5
20260509234722 88 177 3.0 0.0 0.00 0.00 0.00 55 1010.5
20260509234218 88 186 3.0 0.0 0.00 0.00 0.00 53 1010.5
20260509233718 88 132 3.0 0.0 0.00 0.00 0.00 54 1010.8
20260509233219 88 179 5.0 0.0 0.00 0.00 0.00 53 1010.8
20260509232719 89 161 3.0 0.0 0.00 0.00 0.00 53 1010.8
20260509232217 88 158 5.0 0.0 0.00 0.00 0.00 52 1010.5
20260509231717 88 218 3.0 0.0 0.00 0.00 0.00 54 1010.8
20260509231218 89 193 4.0 0.0 0.00 0.00 0.00 53 1010.8
20260509230718 89 143 6.0 0.0 0.00 0.00 0.00 54 1010.8
20260509230217 89 89 8.0 0.0 0.00 0.00 0.00 52 1010.5
20260509225720 89 95 3.0 0.0 0.00 0.00 0.00 53 1010.5
20260509225218 89 222 2.0 0.0 0.00 0.00 0.00 54 1010.5
20260509224719 89 150 3.0 0.0 0.00 0.00 0.00 53 1010.5
20260509224217 89 194 7.0 0.0 0.00 0.00 0.00 54 1010.5
20260509223718 89 98 7.0 0.0 0.00 0.00 0.00 53 1010.5
20260509223216 89 215 2.0 0.0 0.00 0.00 0.00 54 1010.5
20260509222717 89 279 3.0 0.0 0.00 0.00 0.00 53 1010.5
20260509222217 89 292 2.0 0.0 0.00 0.00 0.00 54 1010.5
20260509221717 89 232 3.0 0.0 0.00 0.00 0.00 54 1010.8
20260509221216 89 237 4.0 0.0 0.00 0.00 0.00 55 1010.8
20260509220715 89 302 5.0 0.0 0.00 0.00 0.00 54 1010.5
20260509220214 89 105 6.0 0.0 0.00 0.00 0.00 54 1010.8
20260509215715 89 48 4.0 0.0 0.00 0.00 0.00 56 1010.8
20260509215215 89 311 3.0 0.0 0.00 0.00 0.00 54 1010.8
20260509214714 89 198 6.0 0.0 0.00 0.00 0.00 54 1010.8
20260509214214 89 90 4.0 0.0 0.00 0.00 0.00 55 1010.8
20260509213714 89 173 6.0 0.0 0.00 0.00 0.00 55 1010.8
20260509213215 89 157 5.0 0.0 0.00 0.00 0.00 56 1010.8
20260509212713 89 260 4.0 0.0 0.00 0.00 0.00 54 1010.8
20260509212213 89 255 3.0 0.0 0.00 0.00 0.00 55 1010.8
20260509211713 89 267 6.0 0.0 0.00 0.00 0.00 55 1010.8
20260509211214 89 103 4.0 0.0 0.00 0.00 0.00 56 1010.8
20260509210713 89 85 4.0 0.0 0.00 0.00 0.00 55 1011.2
20260509210212 89 117 3.0 0.0 0.00 0.00 0.00 57 1011.2
20260509205720 89 340 4.0 0.0 0.00 0.00 0.00 57 1011.2
20260509205212 89 130 4.0 0.0 0.00 0.00 0.00 58 1011.2
20260509204713 90 234 4.0 0.0 0.00 0.00 0.00 56 1011.2
20260509204213 89 98 4.0 0.0 0.00 0.00 0.00 57 1011.5
20260509203715 89 95 5.0 0.0 0.00 0.00 0.00 57 1011.5
20260509203211 89 101 7.0 0.0 0.00 0.00 0.00 58 1011.5
20260509202712 89 134 5.0 0.0 0.00 0.00 0.00 57 1011.5
20260509202210 89 139 5.0 0.0 0.00 0.00 0.00 59 1011.5
20260509201715 89 338 4.0 0.0 0.00 0.00 0.00 57 1011.9
20260509201213 89 127 4.0 0.0 0.00 0.00 0.00 60 1011.9
20260509200713 90 113 4.0 0.0 0.00 0.00 0.00 59 1012.2
20260509200216 89 225 4.0 0.0 0.00 0.00 0.00 61 1012.2
20260509195710 89 240 2.0 0.0 0.00 0.00 0.00 57 1012.2
20260509195214 88 143 4.0 0.0 0.00 0.00 0.00 60 1012.2
20260509194710 89 261 5.0 0.0 0.00 0.00 0.00 58 1012.5
20260509194211 90 237 4.0 0.0 0.00 0.00 0.00 57 1012.5
20260509193710 89 109 3.0 0.0 0.00 0.00 0.00 58 1012.5
20260509193214 89 235 5.0 0.0 0.00 0.00 0.00 57 1012.5
20260509192712 88 59 6.0 0.0 0.00 0.00 0.00 59 1012.5
20260509192212 89 226 2.0 0.0 0.00 0.00 0.00 59 1012.5
20260509191712 89 263 4.0 0.0 0.00 0.00 0.00 57 1012.9
20260509191215 90 162 2.0 0.0 0.00 0.00 0.00 57 1012.9
20260509190710 90 268 3.0 0.0 0.00 0.00 0.00 57 1012.9
20260509190211 90 286 3.0 0.0 0.00 0.00 0.00 57 1012.9
20260509185712 90 172 3.0 0.0 0.00 0.00 0.00 59 1012.9
20260509185211 90 245 5.0 0.0 0.00 0.00 0.00 57 1012.9
20260509184712 90 139 5.0 0.0 0.00 0.00 0.00 59 1012.9
20260509184214 90 0 4.0 0.0 0.00 0.00 0.00 57 1013.2
20260509183713 90 244 3.0 0.0 0.00 0.00 0.00 60 1013.2
20260509183214 90 202 3.0 0.0 0.00 0.00 0.00 61 1013.2
20260509182715 90 275 3.0 0.0 0.00 0.00 0.00 57 1013.2
20260509182212 90 194 4.0 0.0 0.00 0.00 0.00 58 1013.2
20260509181711 89 117 4.0 0.0 0.00 0.00 0.00 59 1013.2
20260509181212 89 192 3.0 0.0 0.00 0.00 0.00 59 1013.5
20260509180712 89 170 3.0 0.0 0.00 0.00 0.00 61 1013.5
20260509180210 89 105 4.0 0.0 0.00 0.00 0.00 61 1013.5
20260509175712 89 283 4.0 0.0 0.00 0.00 0.00 62 1013.5
20260509175211 89 266 4.0 0.0 0.00 0.00 0.00 62 1013.5
20260509174714 89 92 3.0 0.0 0.00 0.00 0.00 65 1013.5
20260509174211 88 169 4.0 0.0 0.00 0.00 0.00 66 1013.5
20260509173713 87 260 3.0 0.0 0.00 0.00 0.00 67 1013.5
20260509173211 86 206 6.0 0.0 0.00 0.00 0.00 68 1013.5
20260509172715 85 128 4.0 0.0 0.00 0.00 0.00 68 1013.9
20260509172212 86 313 4.0 0.0 0.00 0.00 0.00 67 1013.9
20260509171714 85 96 3.0 0.0 0.00 0.00 0.00 68 1013.9
20260509171215 84 221 3.0 0.0 0.00 0.00 0.00 69 1013.9
20260509170713 83 205 3.0 0.0 0.00 0.00 0.00 72 1013.9
20260509170209 82 123 3.0 0.0 0.00 0.00 0.00 76 1013.9
20260509165713 80 163 2.0 0.0 0.00 0.00 0.00 77 1013.9
20260509165209 80 111 3.0 0.0 0.00 0.00 0.00 76 1013.9
20260509164713 81 316 3.0 0.0 0.00 0.00 0.00 78 1014.2
20260509164213 81 126 3.0 0.0 0.00 0.00 0.00 78 1014.2
20260509163714 81 187 3.0 0.0 0.00 0.00 0.00 78 1014.2
20260509163212 81 195 3.0 0.0 0.00 0.00 0.00 78 1013.9
20260509162713 80 132 4.0 0.0 0.00 0.00 0.00 80 1014.2
20260509162212 80 116 3.0 0.0 0.00 0.00 0.00 82 1013.9
20260509161711 80 263 4.0 0.0 0.00 0.00 0.00 82 1013.9
20260509161213 80 23 4.0 0.0 0.00 0.00 0.00 83 1013.9
20260509160713 79 96 4.0 0.0 0.00 0.00 0.00 84 1013.9
20260509160211 80 199 4.0 0.0 0.00 0.00 0.00 85 1013.9
20260509155713 79 158 4.0 0.0 0.00 0.00 0.00 86 1013.9
20260509155212 78 121 5.0 0.0 0.00 0.00 0.00 87 1013.9
20260509154711 77 151 6.0 0.0 0.00 0.00 0.00 89 1014.2
20260509154210 77 182 2.0 0.0 0.00 0.00 0.00 91 1014.6
20260509153719 76 118 3.0 0.0 0.00 0.00 0.00 91 1014.2
20260509153219 76 184 5.0 0.0 0.00 0.00 0.00 93 1014.2
20260509152722 75 242 3.0 0.0 0.00 0.00 0.00 93 1014.2
20260509152218 75 114 3.0 0.0 0.00 0.00 0.00 94 1014.6
20260509151719 75 115 4.0 0.0 0.00 0.00 0.00 95 1014.6
20260509151218 75 140 4.0 0.0 0.00 0.00 0.00 95 1014.6
20260509150720 74 150 4.0 0.0 0.00 0.00 0.00 96 1014.6
20260509150218 74 159 3.0 0.0 0.00 0.00 0.00 97 1014.6
20260509145718 74 225 3.0 0.0 0.00 0.00 0.00 97 1014.6
20260509145218 73 169 4.0 0.0 0.00 0.00 0.00 98 1014.6
20260509144719 73 92 0.0 0.0 0.00 0.00 0.00 98 1014.6
20260509144218 73 101 0.0 0.0 0.00 0.00 0.00 98 1014.6
20260509143718 73 182 0.0 0.0 0.00 0.00 0.00 98 1014.6
20260509143217 73 171 0.0 0.0 0.00 0.00 0.00 98 1014.6
20260509142719 73 74 1.0 0.0 0.00 0.00 0.00 98 1014.6
20260509142219 73 137 3.0 0.0 0.00 0.00 0.00 98 1014.2
20260509141718 73 214 0.0 0.0 0.00 0.00 0.00 98 1014.2
20260509141217 72 148 0.0 0.0 0.00 0.00 0.00 98 1014.2
20260509140718 72 170 0.0 0.0 0.00 0.00 0.00 98 1014.2
20260509140221 72 261 0.0 0.0 0.00 0.00 0.00 98 1013.9
20260509135716 72 255 0.0 0.0 0.00 0.00 0.00 98 1013.5
20260509135218 72 233 0.0 0.0 0.00 0.00 0.00 98 1013.5
20260509134718 72 237 4.0 0.0 0.00 0.00 0.00 98 1013.5
20260509134218 72 268 0.0 0.0 0.00 0.00 0.00 98 1013.5
20260509133717 72 239 1.0 0.0 0.00 0.00 0.00 98 1013.9
20260509133215 72 254 2.0 0.0 0.00 0.00 0.00 98 1013.9
20260509132716 72 220 3.0 0.0 0.00 0.00 0.00 98 1013.9
20260509132214 72 237 0.0 0.0 0.00 0.00 0.00 98 1013.9
20260509131716 72 252 0.0 0.0 0.00 0.00 0.00 98 1013.9
20260509131216 72 219 0.0 0.0 0.00 0.00 0.00 98 1013.9
20260509130714 72 197 0.0 0.0 0.00 0.00 0.00 98 1013.9
20260509130215 72 215 0.0 0.0 0.00 0.00 0.00 98 1013.9
20260509125715 72 248 0.0 0.0 0.00 0.00 0.00 98 1013.5
20260509125214 72 161 0.0 0.0 0.00 0.00 0.00 98 1013.9
20260509124713 72 204 0.0 0.0 0.00 0.00 0.00 98 1013.9
20260509124212 72 206 0.0 0.0 0.00 0.00 0.00 98 1013.9
20260509123712 72 260 0.0 0.0 0.00 0.00 0.00 98 1013.9
20260509123213 72 196 0.0 0.0 0.00 0.00 0.00 98 1013.9
20260509122715 72 214 0.0 0.0 0.00 0.00 0.00 98 1013.9
20260509122214 72 178 0.0 0.0 0.00 0.00 0.00 98 1013.9
20260509121811 72 205 3.0 0.0 0.00 0.00 0.00 98 1013.9
20260509120713 72 245 4.0 0.0 0.00 0.00 0.00 98 1013.9
20260509120211 72 289 4.0 0.0 0.00 0.00 0.00 98 1014.2
20260509115716 72 330 5.0 0.0 0.00 0.00 0.00 98 1013.9
20260509115213 72 277 4.0 0.0 0.00 0.00 0.00 98 1013.9
20260509114713 72 250 4.0 0.0 0.00 0.00 0.00 98 1013.9
20260509114212 72 268 4.0 0.0 0.00 0.00 0.00 98 1013.5
20260509113714 72 272 2.0 0.0 0.00 0.00 0.00 98 1013.5
20260509113211 72 224 0.0 0.0 0.00 0.00 0.00 98 1013.2
20260509112712 72 221 0.0 0.0 0.00 0.00 0.00 98 1013.2
20260509112214 72 221 0.0 0.0 0.00 0.00 0.00 98 1013.2
20260509111712 72 225 0.0 0.0 0.00 0.00 0.00 98 1013.2
20260509111213 72 229 0.0 0.0 0.00 0.00 0.00 98 1013.2
20260509110715 72 217 0.0 0.0 0.00 0.00 0.00 98 1013.2
20260509110212 72 226 0.0 0.0 0.00 0.00 0.00 98 1013.2
20260509105714 72 233 0.0 0.0 0.00 0.00 0.00 98 1013.2
20260509105210 72 223 0.0 0.0 0.00 0.00 0.00 98 1013.2
20260509104709 72 247 0.0 0.0 0.00 0.00 0.00 98 1013.2
20260509104213 72 232 0.0 0.0 0.00 0.00 0.00 98 1013.2
20260509103710 72 244 0.0 0.0 0.00 0.00 0.00 98 1013.2
20260509103213 72 228 0.0 0.0 0.00 0.00 0.00 97 1013.2
20260509102713 72 222 0.0 0.0 0.00 0.00 0.00 97 1013.2
20260509102213 72 238 0.0 0.0 0.00 0.00 0.00 97 1013.2
20260509101711 72 199 0.0 0.0 0.00 0.00 0.00 97 1013.2
20260509101214 72 239 0.0 0.0 0.00 0.00 0.00 97 1013.2
20260509100712 72 211 3.0 0.0 0.00 0.00 0.00 97 1013.2
20260509100211 72 260 0.0 0.0 0.00 0.00 0.00 97 1012.9
20260509095713 72 102 0.0 0.0 0.00 0.00 0.00 97 1012.9
20260509095213 72 223 0.0 0.0 0.00 0.00 0.00 97 1012.5